Location: Bennemühlen
(52.5740°N, 9.7135°E)
Time: 20:44:57
(UTC+00:00)

Vanguard 2 Rocket - Pass Details

Date: 22 February 2026
Orbit: 553 x 3286 km, 32.9° (Epoch: 8 March)

Event Time Altitude Azimuth Distance (km) Brightness Sun altitude
Rises 11:23:45 0° 234° (SW) 7,225 11.9 27.3°
Reaches altitude 10° 11:29:18 10° 227° (SW) 6,228 11.8 27.3°
Maximum altitude 11:45:34 35° 172° (S) 4,036 12.4 27.3°
Drops below altitude 10° 11:58:01 10° 115° (ESE) 4,788 10.9 27.1°
Sets 12:01:35 0° 106° (ESE) 5,439 11.0 27.1°
